�������l�o���
Date,Time,MP-1(��Sv/h),MP-2(��Sv/h),MP-3(��Sv/h),MP-4(��Sv/h),MP-5(��Sv/h),MP-6(��Sv/h),MP-7(��Sv/h),MP-8(��Sv/h),����,����(m/s),���J
2021/05/28,00:00,0.600,0.880,0.565,1.071,0.760,0.366,0.631,0.594,��쐼,3.0,��
2021/05/28,00:10,0.601,0.881,0.565,1.071,0.760,0.365,0.632,0.592,��쐼,3.7,��
2021/05/28,00:20,0.600,0.880,0.564,1.072,0.759,0.365,0.631,0.595,��,2.9,��
2021/05/28,00:30,0.600,0.880,0.564,1.070,0.760,0.367,0.629,0.593,��쐼,1.7,��
2021/05/28,00:40,0.601,0.880,0.565,1.073,0.759,0.366,0.631,0.592,���쐼,3.0,��
2021/05/28,00:50,0.599,0.877,0.563,1.071,0.760,0.366,0.630,0.593,���쐼,2.3,��
2021/05/28,01:00,0.601,0.878,0.564,1.073,0.758,0.367,0.631,0.594,�쐼,1.7,��
2021/05/28,01:10,0.600,0.878,0.563,1.072,0.759,0.366,0.631,0.594,���쐼,2.3,��
2021/05/28,01:20,0.600,0.879,0.564,1.072,0.760,0.366,0.631,0.595,���k��,2.3,��
2021/05/28,01:30,0.600,0.879,0.564,1.072,0.759,0.366,0.632,0.595,��,2.0,��
2021/05/28,01:40,0.600,0.879,0.564,1.074,0.762,0.365,0.631,0.594,��,2.3,��
2021/05/28,01:50,0.601,0.879,0.564,1.073,0.759,0.366,0.631,0.594,���쐼,2.6,��
2021/05/28,02:00,0.601,0.878,0.564,1.072,0.759,0.366,0.632,0.592,���쐼,4.7,��
2021/05/28,02:10,0.599,0.878,0.564,1.073,0.759,0.365,0.631,0.592,�쐼,5.3,��
2021/05/28,02:20,0.601,0.879,0.563,1.070,0.759,0.366,0.631,0.594,���쐼,4.8,��
2021/05/28,02:30,0.601,0.880,0.564,1.072,0.760,0.366,0.632,0.594,�쐼,3.4,��
2021/05/28,02:40,0.601,0.878,0.563,1.072,0.761,0.365,0.632,0.594,�쐼,3.1,��
2021/05/28,02:50,0.599,0.879,0.565,1.073,0.758,0.367,0.632,0.594,��쐼,3.7,��
2021/05/28,03:00,0.601,0.881,0.564,1.074,0.761,0.367,0.632,0.593,��쐼,4.3,��
2021/05/28,03:10,0.601,0.877,0.565,1.073,0.761,0.366,0.631,0.593,�쐼,4.1,��
2021/05/28,03:20,0.602,0.880,0.565,1.074,0.761,0.367,0.633,0.595,��쐼,4.0,��
2021/05/28,03:30,0.602,0.880,0.565,1.075,0.760,0.367,0.632,0.594,�쐼,3.6,��
2021/05/28,03:40,0.600,0.879,0.564,1.074,0.760,0.366,0.631,0.595,��쐼,3.4,��
2021/05/28,03:50,0.602,0.880,0.564,1.073,0.759,0.366,0.633,0.595,�쐼,2.2,��
2021/05/28,04:00,0.600,0.880,0.565,1.074,0.761,0.366,0.632,0.594,�쐼,4.1,��
2021/05/28,04:10,0.600,0.877,0.564,1.074,0.760,0.367,0.631,0.594,���쐼,3.9,��
2021/05/28,04:20,0.599,0.882,0.564,1.074,0.761,0.366,0.634,0.594,�쓌,1.2,��
2021/05/28,04:30,0.600,0.879,0.566,1.075,0.761,0.365,0.632,0.595,��,2.0,��
2021/05/28,04:40,0.601,0.880,0.565,1.074,0.760,0.366,0.633,0.594,���쐼,2.2,��
2021/05/28,04:50,0.600,0.880,0.566,1.074,0.761,0.366,0.633,0.594,�쐼,2.0,��
2021/05/28,05:00,0.602,0.880,0.567,1.073,0.761,0.366,0.633,0.594,�쐼,2.3,��
2021/05/28,05:10,0.602,0.880,0.566,1.074,0.761,0.366,0.634,0.594,��쐼,2.3,��
2021/05/28,05:20,0.600,0.881,0.565,1.075,0.764,0.366,0.632,0.594,�쐼,2.8,��
2021/05/28,05:30,0.604,0.882,0.564,1.072,0.761,0.367,0.633,0.595,�쐼,3.0,��
2021/05/28,05:40,0.602,0.883,0.566,1.076,0.760,0.365,0.633,0.595,�쐼,3.8,��
2021/05/28,05:50,0.603,0.883,0.566,1.077,0.761,0.366,0.634,0.594,�쐼,3.9,��
2021/05/28,06:00,0.604,0.881,0.567,1.075,0.761,0.366,0.634,0.594,�쐼,3.6,��
2021/05/28,06:10,0.603,0.880,0.566,1.076,0.763,0.365,0.634,0.595,�쐼,4.5,��
2021/05/28,06:20,0.604,0.880,0.564,1.078,0.762,0.367,0.634,0.595,�쐼,5.1,��
2021/05/28,06:30,0.603,0.882,0.566,1.076,0.760,0.365,0.634,0.594,�쐼,4.5,��
2021/05/28,06:40,0.603,0.880,0.566,1.077,0.762,0.365,0.633,0.595,���쐼,4.1,��
2021/05/28,06:50,0.604,0.881,0.565,1.077,0.762,0.365,0.634,0.596,��쐼,3.0,��
2021/05/28,07:00,0.603,0.880,0.567,1.077,0.760,0.365,0.633,0.596,���쐼,3.4,��
2021/05/28,07:10,0.601,0.882,0.566,1.077,0.762,0.365,0.632,0.596,��쐼,3.6,��
2021/05/28,07:20,0.602,0.881,0.567,1.078,0.763,0.364,0.632,0.595,��쐼,5.3,��
2021/05/28,07:30,0.603,0.882,0.565,1.078,0.764,0.364,0.632,0.596,�쐼,5.8,��
2021/05/28,07:40,0.604,0.883,0.567,1.079,0.764,0.365,0.633,0.594,�쐼,6.5,��
2021/05/28,07:50,0.605,0.886,0.566,1.079,0.764,0.363,0.632,0.595,���쐼,7.2,��
2021/05/28,08:00,0.605,0.884,0.567,1.081,0.764,0.365,0.634,0.591,�쐼,7.1,��
2021/05/28,08:10,0.605,0.886,0.568,1.079,0.766,0.364,0.635,0.592,���쐼,9.2,��
2021/05/28,08:20,0.605,0.885,0.570,1.082,0.764,0.363,0.635,0.594,���쐼,10.5,��
2021/05/28,08:30,0.607,0.884,0.570,1.082,0.766,0.364,0.635,0.595,��,9.7,��
2021/05/28,08:40,0.606,0.886,0.571,1.079,0.764,0.362,0.634,0.593,��,10.5,��
2021/05/28,08:50,0.606,0.886,0.570,1.080,0.764,0.364,0.636,0.594,��,9.7,��
2021/05/28,09:00,0.607,0.884,0.569,1.081,0.767,0.364,0.636,0.593,��,9.8,��
2021/05/28,09:10,0.606,0.886,0.570,1.081,0.767,0.366,0.636,0.596,��,7.7,��
2021/05/28,09:20,0.609,0.887,0.569,1.081,0.766,0.366,0.635,0.593,���쐼,8.1,��
2021/05/28,09:30,0.609,0.888,0.570,1.084,0.767,0.367,0.635,0.595,���쐼,10.0,��
2021/05/28,09:40,0.609,0.888,0.570,1.082,0.769,0.368,0.635,0.595,���쐼,9.3,��
2021/05/28,09:50,0.609,0.886,0.570,1.082,0.770,0.367,0.636,0.595,���쐼,10.0,��
2021/05/28,10:00,0.606,0.888,0.570,1.083,0.763,0.366,0.636,0.594,���쐼,9.5,��
2021/05/28,10:10,0.609,0.890,0.571,1.082,0.767,0.367,0.638,0.595,���쐼,11.8,��
2021/05/28,10:20,0.610,0.888,0.572,1.082,0.770,0.368,0.638,0.597,��,12.7,��
2021/05/28,10:30,0.609,0.888,0.572,1.083,0.771,0.368,0.636,0.596,��,10.9,��
2021/05/28,10:40,0.611,0.888,0.572,1.086,0.772,0.370,0.637,0.596,��,11.6,��
2021/05/28,10:50,0.610,0.889,0.571,1.084,0.773,0.371,0.637,0.597,��,9.0,��
2021/05/28,11:00,0.611,0.888,0.574,1.085,0.773,0.372,0.638,0.596,��,14.1,��
2021/05/28,11:10,0.610,0.887,0.575,1.085,0.773,0.370,0.637,0.595,��,12.5,��
2021/05/28,11:20,0.610,0.889,0.574,1.086,0.774,0.373,0.638,0.596,��,9.6,��
2021/05/28,11:30,0.613,0.891,0.573,1.088,0.775,0.371,0.636,0.596,��,10.3,��
2021/05/28,11:40,0.613,0.889,0.575,1.088,0.774,0.373,0.636,0.596,��,7.8,��
2021/05/28,11:50,0.614,0.893,0.572,1.089,0.776,0.372,0.637,0.596,��,6.3,��
2021/05/28,12:00,0.613,0.894,0.574,1.089,0.777,0.372,0.637,0.598,��,7.6,��
2021/05/28,12:10,0.615,0.897,0.575,1.092,0.776,0.371,0.637,0.598,���쐼,8.6,��
2021/05/28,12:20,0.614,0.899,0.576,1.089,0.777,0.371,0.638,0.597,���쐼,5.6,��
2021/05/28,12:30,0.615,0.898,0.573,1.091,0.776,0.371,0.638,0.597,���쐼,3.1,��
2021/05/28,12:40,0.613,0.897,0.574,1.090,0.777,0.372,0.639,0.596,�쓌,0.8,��
2021/05/28,12:50,0.614,0.897,0.576,1.092,0.777,0.371,0.639,0.596,��쓌,5.4,��
2021/05/28,13:00,0.612,0.897,0.573,1.090,0.776,0.370,0.638,0.597,��쓌,7.9,��
2021/05/28,13:10,0.613,0.896,0.575,1.090,0.778,0.371,0.638,0.597,��쓌,8.3,��
2021/05/28,13:20,0.613,0.898,0.574,1.090,0.779,0.371,0.637,0.597,��,8.9,��
2021/05/28,13:30,0.613,0.893,0.574,1.091,0.778,0.371,0.638,0.597,��쓌,9.7,��
2021/05/28,13:40,0.613,0.894,0.576,1.089,0.780,0.371,0.638,0.598,��쓌,9.3,��
2021/05/28,13:50,0.615,0.894,0.575,1.093,0.778,0.371,0.637,0.597,��,8.5,��
2021/05/28,14:00,0.614,0.898,0.576,1.091,0.780,0.371,0.640,0.597,��,7.8,��
2021/05/28,14:10,0.614,0.899,0.576,1.093,0.778,0.371,0.639,0.597,��쓌,9.7,��
2021/05/28,14:20,0.612,0.900,0.576,1.093,0.780,0.370,0.638,0.596,��,9.4,��
2021/05/28,14:30,0.613,0.902,0.575,1.093,0.781,0.371,0.638,0.596,��,8.7,��
2021/05/28,14:40,0.613,0.902,0.577,1.092,0.780,0.371,0.637,0.598,��쓌,8.0,��
2021/05/28,14:50,0.615,0.902,0.575,1.094,0.780,0.371,0.638,0.596,��,9.1,��
2021/05/28,15:00,0.615,0.901,0.576,1.094,0.782,0.368,0.638,0.597,��쓌,9.1,��
2021/05/28,15:10,0.614,0.905,0.575,1.093,0.780,0.370,0.636,0.598,��쓌,7.9,��
2021/05/28,15:20,0.614,0.903,0.574,1.092,0.781,0.371,0.638,0.596,��쓌,6.9,��
2021/05/28,15:30,0.613,0.903,0.575,1.093,0.781,0.372,0.640,0.598,��쓌,7.2,��
2021/05/28,15:40,0.615,0.904,0.576,1.094,0.781,0.370,0.638,0.595,��쓌,9.3,��
2021/05/28,15:50,0.614,0.903,0.576,1.094,0.780,0.371,0.638,0.597,��,7.8,��
2021/05/28,16:00,0.613,0.903,0.575,1.095,0.779,0.372,0.637,0.598,��,7.8,��
2021/05/28,16:10,0.613,0.903,0.575,1.093,0.781,0.371,0.638,0.596,��,8.7,��
2021/05/28,16:20,0.612,0.903,0.577,1.093,0.780,0.373,0.639,0.597,��,7.4,��
2021/05/28,16:30,0.614,0.901,0.574,1.096,0.780,0.370,0.638,0.596,��,6.8,��
2021/05/28,16:40,0.613,0.903,0.574,1.093,0.780,0.371,0.637,0.597,��,6.5,��
2021/05/28,16:50,0.615,0.903,0.575,1.094,0.781,0.371,0.639,0.597,��,5.2,��
2021/05/28,17:00,0.613,0.903,0.575,1.094,0.780,0.370,0.638,0.596,��,5.2,��
2021/05/28,17:10,0.614,0.905,0.576,1.093,0.780,0.369,0.638,0.599,��,6.2,��
2021/05/28,17:20,0.615,0.906,0.575,1.093,0.781,0.370,0.637,0.597,��,7.0,��
2021/05/28,17:30,0.614,0.906,0.575,1.095,0.779,0.371,0.636,0.597,��,7.1,��
2021/05/28,17:40,0.614,0.906,0.577,1.094,0.779,0.370,0.637,0.597,��쓌,8.0,��
2021/05/28,17:50,0.613,0.906,0.575,1.093,0.780,0.370,0.636,0.597,��쓌,8.0,��
2021/05/28,18:00,0.612,0.905,0.575,1.095,0.780,0.371,0.639,0.597,��쓌,8.6,��
2021/05/28,18:10,0.612,0.903,0.576,1.098,0.780,0.368,0.637,0.598,��,6.8,��
2021/05/28,18:20,0.613,0.905,0.575,1.095,0.781,0.369,0.637,0.599,��,7.4,��
2021/05/28,18:30,0.614,0.905,0.575,1.098,0.780,0.370,0.638,0.598,��쓌,6.7,��
2021/05/28,18:40,0.614,0.905,0.576,1.098,0.781,0.370,0.638,0.601,��쓌,7.2,��
2021/05/28,18:50,0.614,0.902,0.574,1.099,0.779,0.370,0.638,0.599,��,6.9,��
2021/05/28,19:00,0.615,0.906,0.577,1.100,0.781,0.370,0.638,0.600,��,7.5,��
2021/05/28,19:10,0.614,0.906,0.576,1.100,0.779,0.371,0.638,0.601,��,6.2,��
2021/05/28,19:20,0.613,0.907,0.578,1.098,0.782,0.370,0.639,0.599,��,5.9,��
2021/05/28,19:30,0.615,0.907,0.578,1.098,0.779,0.369,0.639,0.600,��,6.2,��
2021/05/28,19:40,0.613,0.908,0.578,1.098,0.782,0.370,0.640,0.601,��쐼,5.9,��
2021/05/28,19:50,0.614,0.908,0.578,1.099,0.783,0.370,0.641,0.599,��쐼,5.1,��
2021/05/28,20:00,0.615,0.907,0.579,1.098,0.782,0.370,0.640,0.599,��,1.9,��
2021/05/28,20:10,0.614,0.908,0.576,1.099,0.783,0.371,0.640,0.600,�쓌,1.5,��
2021/05/28,20:20,0.614,0.906,0.579,1.097,0.783,0.372,0.640,0.599,��쓌,1.7,��
2021/05/28,20:30,0.614,0.906,0.578,1.097,0.784,0.372,0.642,0.598,�쓌,1.4,��
2021/05/28,20:40,0.614,0.907,0.577,1.099,0.784,0.372,0.639,0.600,��,2.2,��
2021/05/28,20:50,0.614,0.908,0.578,1.100,0.784,0.370,0.641,0.601,���쓌,1.2,��
2021/05/28,21:00,0.616,0.907,0.577,1.099,0.784,0.371,0.640,0.601,���k��,2.0,��
2021/05/28,21:10,0.615,0.906,0.578,1.100,0.782,0.369,0.640,0.600,���k��,1.4,��
2021/05/28,21:20,0.617,0.905,0.579,1.099,0.782,0.370,0.640,0.600,�k�k��,1.2,��
2021/05/28,21:30,0.613,0.906,0.578,1.101,0.782,0.370,0.640,0.599,�k��,2.3,��
2021/05/28,21:40,0.616,0.907,0.578,1.099,0.782,0.371,0.640,0.601,�k�k��,1.7,��
2021/05/28,21:50,0.616,0.905,0.576,1.099,0.783,0.369,0.639,0.601,�k�k��,3.9,��
2021/05/28,22:00,0.614,0.906,0.576,1.099,0.783,0.369,0.637,0.599,�k�k��,3.4,��
2021/05/28,22:10,0.614,0.907,0.576,1.099,0.782,0.370,0.638,0.599,�k�k��,4.2,��
2021/05/28,22:20,0.612,0.905,0.577,1.096,0.784,0.369,0.639,0.600,�k�k��,4.2,��
2021/05/28,22:30,0.615,0.906,0.578,1.098,0.783,0.369,0.639,0.598,�k,3.3,��
2021/05/28,22:40,0.613,0.906,0.575,1.099,0.782,0.369,0.640,0.601,�k,2.6,��
2021/05/28,22:50,0.616,0.905,0.576,1.098,0.783,0.368,0.638,0.599,�k,4.3,��
2021/05/28,23:00,0.615,0.904,0.578,1.098,0.783,0.369,0.637,0.600,�k,3.6,��
2021/05/28,23:10,0.615,0.903,0.577,1.100,0.782,0.369,0.637,0.599,�k�k��,4.6,��
2021/05/28,23:20,0.615,0.907,0.577,1.099,0.784,0.369,0.637,0.599,�k�k��,3.9,��
2021/05/28,23:30,0.613,0.906,0.577,1.100,0.783,0.369,0.638,0.600,�k,3.7,��
2021/05/28,23:40,0.614,0.906,0.576,1.099,0.783,0.369,0.638,0.599,�k,3.7,��
2021/05/28,23:50,0.613,0.903,0.577,1.099,0.782,0.370,0.639,0.600,�k,4.3,��
